STARLINK-35941, 66583

Orbit data source: Space-Track

STARLINK-35941, 66583 is a payload satellite owned by SpaceX/Seattle (US) in LEO that was launched on Fri, 21 Nov 2025 UTC via an FALCON 9 launch vehicle from the Air Force Eastern Test Range (AFETR). Payload-class satellites include a variety of spacecraft equipped with specific instruments for various scientific and technological missions. These include communications satellites like Starlink; space stations such as the ISS; scientific satellites like the Hubble; Earth observation satellites from companies like Planet Labs, Umbra, and HawkEye 360; GPS; miniature CubeSats for education and research; and military/defense satellites.

Loading next visibility...
Identifier
66583, 2025-268AC
Orbit
LEO
Country
Flag of USUS
Related business
Manufacturer
SpaceX/Seattle
Mission
Operational Commercial Communications
Bus & Motor
STARLINK V2MO, Unknown motor
Mass
575 kg wet, ~530 kg dry
Launch date (UTC)
2025-11-21 (7 months ago)
Launch vehicle
FALCON 9
Launch site
Air Force Eastern Test Range (AFETR)
Object type
Payload
Rocket body
Debris
Shape & HBR
Box + 2 Pan, 17.7 m
Radar Cross Section
36.964 m², Large (>1 m²)

Expand to show TLE details & history
Last TLE update: 14 hours ago

TLE from 14 hours ago
0 STARLINK-35941
1 66583U 25268AC  26171.28197343  .00011112  00000-0  41248-3 0  9993
2 66583  43.0011 127.3464 0001583 268.5527  91.5143 15.27597695 33654
Epoch: 2026-06-20T06:46Z
TLE epoch observation values (Epoch: 2026-06-20T06:46:02.504Z)
Latitude
-0.00004°
Longitude
117.33709°
Altitude
482.801 km
Speed
7.626 km/s
True Right ascension
08h 29m 23s
True Declination
0° 00' 00"
Sunlit
Object was in daylight at epoch
Visualization orbit readout
Latitude
Unknown
Longitude
Unknown
Altitude
Unknown
Speed
Unknown
Apparent Right ascension
Unknown
Apparent Declination
Unknown
Sunlit
N/A
Visualization observer readout
Local Sidereal Time
07:16:33
Azimuth
Unknown
Elevation
Unknown
Doppler factor
Unknown
Orbital elements
Apogee altitude
486.028 km
Perigee altitude
483.855 km
Semi-major axis
6,863.078 km
Eccentricity
0.00016
Inclination
43.0011°
RAAN
127.3464°
Arg. of periapsis
268.5527°
True anomaly
91.53243°
Mean anomaly
91.5143°
Eccentric anomaly
91.52337°
Mean motion
3.81737 °/min
Orbital period
94.31 mins
BSTAR
0.00041248
Loading maneuver chart data...
Computing Atmospheric mass density...
Loading historical data...
Loading historical data...
Loading historical data...
Loading historical data...
Loading historical data...
Loading historical data...
Loading historical data...

Documentation

Showing up to 5 results
|